This demonstration page uses our WeatherBlox Daily Observations layout. Learn more.

39.29038, -76.61219

Hourly Observations for December 21, 2019

Temp ( °F °C ) Dew Point ( °F °C ) Humidity (%) Winds ( mph kmh ) Pressure ( in mb ) Visibility ( mi km ) Precip ( " mm )
12:54 am 00:54 undefined 32 0 15 -9.4 50 50 undefined N/A 30.63 1037 N/A 0 0
1:54 am 01:54 undefined 31 -0.6 16 -8.9 54 54 undefined N/A 30.63 1037 N/A 0 0
2:54 am 02:54 undefined 30 -1.1 17 -8.3 58 58 undefined N/A 30.65 1038 N/A 0 0
3:54 am 03:54 undefined 31 -0.6 16 -8.9 54 54 undefined N/A 30.63 1037 N/A 0 0
4:54 am 04:54 undefined 30 -1.1 16 -8.9 56 56 undefined N/A 30.61 1037 N/A 0 0
5:54 am 05:54 undefined 29 -1.7 17 -8.3 61 61 undefined N/A 30.61 1037 N/A 0 0
6:54 am 06:54 undefined 29 -1.7 17 -8.3 61 61 undefined N/A 30.62 1037 N/A 0 0
7:54 am 07:54 undefined 29 -1.7 18 -7.8 63 63 undefined N/A 30.63 1037 N/A 0 0
8:54 am 08:54 undefined 31 -0.6 20 -6.7 64 64 undefined N/A 30.65 1038 N/A 0 0
9:54 am 09:54 undefined 32 0 20 -6.7 61 61 undefined N/A 30.64 1038 N/A 0 0
10:54 am 10:54 undefined 33 0.6 21 -6.1 61 61 undefined N/A 30.62 1037 N/A 0 0
11:54 am 11:54 undefined 33 0.6 22 -5.6 64 64 undefined N/A 30.58 1036 N/A 0 0
12:54 pm 12:54 undefined 36 2.2 22 -5.6 57 57 undefined N/A 30.56 1035 N/A 0 0
1:54 pm 13:54 undefined 37 2.8 23 -5 57 57 undefined N/A 30.52 1033 N/A 0 0
2:54 pm 14:54 undefined 36 2.2 23 -5 59 59 undefined N/A 30.5 1033 N/A 0 0
3:54 pm 15:54 undefined 36 2.2 24 -4.4 62 62 undefined N/A 30.49 1033 N/A 0 0
4:54 pm 16:54 undefined 34 1.1 24 -4.4 67 67 undefined N/A 30.46 1032 N/A 0 0
5:54 pm 17:54 undefined 33 0.6 25 -3.9 72 72 undefined N/A 30.48 1032 N/A 0 0
6:54 pm 18:54 undefined 33 0.6 25 -3.9 72 72 undefined N/A 30.48 1032 N/A 0 0
7:54 pm 19:54 undefined 32 0 24 -4.4 73 73 undefined N/A 30.48 1032 N/A 0 0
8:54 pm 20:54 undefined 32 0 24 -4.4 73 73 undefined N/A 30.48 1032 N/A 0 0
9:54 pm 21:54 undefined 32 0 24 -4.4 73 73 undefined N/A 30.49 1032 N/A 0 0
10:54 pm 22:54 undefined 32 0 24 -4.4 73 73 undefined N/A 30.48 1032 N/A 0 0
11:54 pm 23:54 undefined 32 0 25 -3.9 75 75 undefined N/A 30.47 1032 N/A 0 0

Powered by AerisWeather